This is the latest recevied weather packets stored in our database for station/object K1BWE-1. If no packets are shown the sender has not sent any weather packets the latest 10 day(s).
| Time | Temp. | Humidity | Pressure | Rain* | Wind** | Luminosity | Snow |
|---|---|---|---|---|---|---|---|
| 1778185972 | 28.33° C | 17% | 1013.7 hPa | 0 mm | - | 193 W/m² | - |
| 1778185668 | 29.44° C | 16% | 1013.8 hPa | 0 mm | - | 189 W/m² | - |
| 1778185364 | 30° C | 16% | 1013.8 hPa | 0 mm | - | 238 W/m² | - |
| 1778185059 | 30° C | 17% | 1013.8 hPa | 0 mm | - | 938 W/m² | - |
| 1778184756 | 29.44° C | 14% | 1014 hPa | 0 mm | - | 881 W/m² | - |
| 1778184452 | 30° C | 16% | 1013.8 hPa | 0 mm | - | 840 W/m² | - |
| 1778184148 | 30° C | 14% | 1014.2 hPa | 0 mm | - | 832 W/m² | - |
| 1778183844 | 29.44° C | 16% | 1014.1 hPa | 0 mm | - | 835 W/m² | - |
| 1778183536 | 29.44° C | 14% | 1014.2 hPa | 0 mm | - | 821 W/m² | - |
| 1778183233 | 28.89° C | 17% | 1014.2 hPa | 0 mm | - | 826 W/m² | - |
| 1778182929 | 29.44° C | 14% | 1014.5 hPa | 0 mm | - | 800 W/m² | - |
| 1778182626 | 29.44° C | 17% | 1014.5 hPa | 0 mm | - | 757 W/m² | - |
| 1778182323 | 28.89° C | 15% | 1014.7 hPa | 0 mm | - | 744 W/m² | - |
| 1778182019 | 28.89° C | 16% | 1014.7 hPa | 0 mm | - | 773 W/m² | - |
| 1778181716 | 28.89° C | 16% | 1014.7 hPa | 0 mm | - | 799 W/m² | - |
| 1778181411 | 29.44° C | 18% | 1014.9 hPa | 0 mm | - | 794 W/m² | - |
| 1778181109 | 28.33° C | 20% | 1014.8 hPa | 0 mm | - | 797 W/m² | - |
| 1778180806 | 28.89° C | 17% | 1015.1 hPa | 0 mm | - | 782 W/m² | - |
| 1778180505 | 28.89° C | 18% | 1015 hPa | 0 mm | - | 768 W/m² | - |
| 1778180203 | 28.33° C | 22% | 1015.1 hPa | 0 mm | - | 771 W/m² | - |
| 1778179899 | 28.33° C | 19% | 1015.1 hPa | 0 mm | - | 792 W/m² | - |
| 1778179597 | 27.78° C | 17% | 1015 hPa | 0 mm | - | 782 W/m² | - |
| 1778179295 | 28.33° C | 19% | 1015.1 hPa | 0 mm | - | 777 W/m² | - |
| 1778178990 | 27.78° C | 24% | 1015.2 hPa | 0 mm | - | 757 W/m² | - |
| 1778178687 | 28.33° C | 21% | 1015.4 hPa | 0 mm | - | 753 W/m² | - |
* Rain latest hour (hover to see other rain measurements)
** Current wind speed in m/s (hover to see current wind gust speed)